Change the Weather History Date:

Monday, July 29, 2013

  Actual Average Record
Temperature  
Mean Temperature 68 °F -  
Max Temperature 81 °F 93 °F 106 °F (1988)
Min Temperature 55 °F 59 °F 52 °F (1978)
Degree Days  
Heating Degree Days 0    
Cooling Degree Days 3    
Growing Degree Days 17 (Base 50)    
Moisture  
Dew Point 51 °F    
Average Humidity 61    
Maximum Humidity 86    
Minimum Humidity 35    
Precipitation  
Precipitation 0.00 in 0.00 in 0.00 in (2015)
Month to date precipitation T 0.00  
Year to date precipitation 3.91 11.90  
Since 1 July precipitation T 0.00  
Sea Level Pressure  
Sea Level Pressure 29.88 in    
Wind  
Wind Speed 11 mph (SSW)    
Max Wind Speed 18 mph    
Max Gust Speed 24 mph    
Visibility 8 miles    
Events      
T = Trace of Precipitation, MM = Missing Value Source: NWS Daily Summary

Daily Weather History Graph

Daily Weather History Graph

Search for Another Location

Airport or City:

Trip Planner

Search our weather history database for the weather conditions in past years. The results will help you decide how hot, cold, wet, or windy it might be!

Date:

Astronomy

Jul. 29, 2013 Rise Set
Actual Time 6:05 AM PDT 8:18 PM PDT
Civil Twilight 5:35 AM PDT 8:48 PM PDT
Nautical Twilight 4:59 AM PDT 9:24 PM PDT
Astronomical Twilight 4:19 AM PDT 10:04 PM PDT
Moon No Moon Rise 1:46 PM PDT
Length of Visible Light 15h 12m
Length of Day
14h 13m
Waning Gibbous, 50% of the Moon is Illuminated
Jul 29
Waning Gibbous
Aug 6
New
Aug 14
First Quarter
Aug 20
Full
Aug 28
Last Quarter

Hourly Weather History & Observations

Time (PDT) Temp. Dew Point Humidity Pressure Visibility Wind Dir Wind Speed Gust Speed Precip Events Conditions
12:53 AM 57.9 °F 50.0 °F 75% 29.78 in 7.0 mi South 8.1 mph - N/A   Overcast
1:53 AM 55.9 °F 51.1 °F 84% 29.79 in 6.0 mi SSW 10.4 mph - N/A   Haze
2:53 AM 55.9 °F 51.1 °F 84% 29.80 in 6.0 mi SSW 12.7 mph 21.9 mph N/A   Haze
3:53 AM 55.9 °F 51.1 °F 84% 29.81 in 6.0 mi SSW 13.8 mph 20.7 mph N/A   Haze
4:53 AM 55.0 °F 50.0 °F 83% 29.81 in 6.0 mi SSW 11.5 mph 21.9 mph N/A   Haze
5:53 AM 55.9 °F 50.0 °F 80% 29.83 in 7.0 mi SSW 8.1 mph 18.4 mph N/A   Clear
6:53 AM 55.9 °F 50.0 °F 80% 29.86 in 6.0 mi SSW 9.2 mph 17.3 mph N/A   Haze
7:53 AM 57.9 °F 51.1 °F 78% 29.88 in 6.0 mi SSW 12.7 mph 20.7 mph N/A   Haze
8:53 AM 61.0 °F 51.1 °F 70% 29.90 in 6.0 mi SSW 12.7 mph - N/A   Haze
9:53 AM 64.0 °F 51.1 °F 63% 29.91 in 6.0 mi SW 17.3 mph 24.2 mph N/A   Haze
10:53 AM 68.0 °F 51.1 °F 55% 29.92 in 7.0 mi SSW 9.2 mph 21.9 mph N/A   Clear
11:53 AM 71.1 °F 52.0 °F 51% 29.93 in 8.0 mi WSW 16.1 mph 21.9 mph N/A   Clear
12:53 PM 73.0 °F 51.1 °F 46% 29.93 in 9.0 mi SW 17.3 mph 21.9 mph N/A   Clear
1:53 PM 75.0 °F 52.0 °F 44% 29.92 in 8.0 mi SSW 12.7 mph - N/A   Clear
2:53 PM 77.0 °F 52.0 °F 42% 29.91 in 9.0 mi SSW 12.7 mph 20.7 mph N/A   Clear
3:53 PM 79.0 °F 50.0 °F 36% 29.90 in 8.0 mi South 10.4 mph 16.1 mph N/A   Clear
4:53 PM 79.0 °F 48.0 °F 34% 29.89 in 10.0 mi SSW 10.4 mph 18.4 mph N/A   Clear
5:53 PM 77.0 °F 50.0 °F 39% 29.88 in 10.0 mi SSW 9.2 mph 20.7 mph N/A   Clear
6:53 PM 73.0 °F 52.0 °F 48% 29.89 in 10.0 mi SW 12.7 mph 21.9 mph N/A   Clear
7:53 PM 68.0 °F 52.0 °F 56% 29.90 in 10.0 mi SSW 9.2 mph - N/A   Clear
8:53 PM 63.0 °F 51.1 °F 65% 29.91 in 10.0 mi SSW 8.1 mph 19.6 mph N/A   Clear
9:53 PM 62.1 °F 52.0 °F 70% 29.94 in 10.0 mi South 8.1 mph - N/A   Clear
10:53 PM 61.0 °F 51.1 °F 70% 29.95 in 10.0 mi SSW 10.4 mph 18.4 mph N/A   Clear
11:53 PM 59.0 °F 51.1 °F 75% 29.96 in 10.0 mi South 6.9 mph - N/A   Clear